Wind_Speed
3 3 4 4 4 3 3 3 2 2 2 2 2 2 2 2 3 3 3 4 4 5 6 7 7 8 9 10 11 12 14 15 15 12 8 8 5 6 3 2 3 5 6 7 7 6 4 2 1 3 3 2 4 3 3 3 3 4 4 3 0 3 3 5 6 5 3 3 5 4 2 2 4 5 3 3 4 5 5 5 4 3 5 7 10 11 11 12
4 3 3 3 4 3 3 3 2 1 1 2 1 1 1 1 2 3 3 3 4 5 6 6 7 7 8 9 10 12 14 15 15 12 8 5 5 6 3 3 3 5 7 6 7 6 5 1 1 4 5 2 3 3 3 2 3 4 3 2 3 6 5 5 7 5 3 2 5 4 3 3 5 3 2 2 6 7 8 9 2 3 7 8 11 11 11 11
4 4 4 3 3 3 3 2 1 1 1 2 2 2 1 2 2 3 3 4 4 4 5 6 6 7 7 8 9 11 14 13 10 7 1 3 7 6 3 4 4 7 7 4 5 4 4 1 2 4 5 3 1 3 3 2 1 2 4 1 5 6 4 5 6 6 5 2 3 5 1 2 5 4 1 1 6 7 6 8 4 5 7 6 7 7 10 11
5 4 4 4 4 3 3 2 2 2 2 2 2 3 2 3 3 3 4 4 5 5 6 6 6 7 7 8 8 10 11 8 4 2 6 6 7 5 4 5 6 8 6 3 5 3 1 2 4 4 4 2 3 3 1 2 1 1 3 3 6 3 2 5 6 6 6 3 3 3 2 3 5 3 1 2 3 8 6 7 5 6 8 8 8 8 10 11
5 5 5 4 4 4 3 3 2 2 2 2 2 3 4 4 5 5 5 5 6 6 7 8 8 7 7 7 7 8 8 5 2 3 6 7 6 4 4 5 7 8 6 4 4 2 1 3 5 5 4 1 3 3 1 2 2 1 3 5 5 4 2 5 5 6 4 2 1 3 4 5 3 1 3 3 2 6 6 3 4 6 8 8 7 8 9 10
6 6 6 5 4 4 4 3 2 1 2 2 3 4 4 5 5 6 6 6 7 7 8 9 9 8 7 6 4 3 3 1 3 2 4 8 6 3 3 4 6 8 8 5 2 2 2 4 5 2 3 2 1 1 3 3 2 1 4 3 3 4 4 5 2 4 2 2 2 3 4 2 4 5 3 5 7 10 6 3 2 4 6 7 8 8 9 9
7 7 7 5 4 5 4 3 2 1 1 2 3 3 4 5 5 6 6 6 7 7 8 9 9 8 6 4 2 2 3 4 7 4 6 8 8 5 3 3 5 8 10 6 2 3 3 4 2 3 4 2 1 3 3 3 3 2 3 5 4 4 5 6 4 5 1 1 6 2 4 3 2 6 2 4 11 11 6 5 6 6 11 12 11 8 8 9
8 7 7 5 5 4 3 2 2 1 1 1 2 3 4 5 5 6 6 6 6 6 7 8 8 7 5 2 1 3 2 6 7 5 7 8 8 6 3 3 5 9 10 7 4 5 4 5 4 4 3 1 3 2 1 2 3 2 5 4 3 3 6 7 6 8 6 5 5 1 6 6 6 4 2 10 13 6 2 6 8 8 11 11 9 8 7 9
8 7 6 5 5 3 2 1 1 1 1 0 2 3 4 5 6 7 7 7 7 6 6 6 6 5 3 1 4 2 4 5 5 4 6 8 9 6 5 4 5 8 9 6 4 6 4 4 4 4 3 3 4 2 0 1 2 4 5 3 4 5 6 6 7 8 6 4 3 2 9 6 4 2 3 12 9 4 7 8 7 8 9 9 8 7 7 8
8 7 6 6 5 3 3 2 2 1 1 0 2 3 4 6 6 7 7 7 7 6 6 5 5 3 3 2 5 0 4 2 2 4 4 7 8 6 5 4 5 8 8 5 4 6 4 4 4 4 4 3 3 2 1 3 2 4 3 4 6 7 8 5 7 8 3 4 5 6 10 5 2 0 3 7 1 6 9 9 7 9 9 7 7 7 9 10
8 6 6 6 5 4 4 4 2 2 1 1 2 3 5 6 6 7 7 7 6 5 5 4 3 3 3 4 5 4 4 2 3 3 4 6 6 5 4 3 4 7 7 4 4 5 3 5 6 6 2 2 3 1 1 4 2 2 1 5 7 7 8 6 7 7 2 3 5 8 6 3 2 0 7 4 6 7 8 8 7 9 7 6 7 7 9 10
7 7 7 6 5 5 5 4 3 2 1 1 2 4 5 6 6 7 7 7 6 5 4 3 3 4 3 2 4 8 6 2 3 3 4 5 5 5 3 3 4 6 7 3 3 4 3 5 8 5 2 3 2 1 2 3 2 0 2 4 8 8 8 7 4 3 1 1 4 6 2 3 2 6 10 3 6 7 9 8 6 7 6 6 6 6 7 10
8 8 7 6 6 5 5 4 3 2 2 2 3 4 5 6 6 7 7 6 6 4 3 2 3 6 4 0 6 11 11 7 5 4 5 5 5 4 3 3 4 4 5 4 3 4 4 5 7 3 2 4 1 1 2 2 1 1 3 1 5 7 7 6 1 2 1 1 3 4 3 5 6 10 9 5 6 7 9 7 6 6 5 6 5 6 6 10
9 9 7 6 6 5 4 4 3 2 3 3 3 4 6 6 7 7 7 6 5 4 2 1 4 6 4 3 5 6 10 10 8 7 6 5 5 4 3 3 4 4 4 5 5 5 4 4 5 3 1 2 0 1 3 5 3 1 1 1 2 2 5 7 1 1 1 1 1 3 2 6 8 10 6 4 4 8 7 5 6 5 5 5 5 6 5 8
11 10 9 7 5 4 4 4 3 3 3 4 4 5 7 7 7 7 6 5 4 1 1 3 6 6 2 5 5 4 6 7 8 9 8 6 6 4 5 5 5 5 6 6 6 5 4 4 4 3 0 2 4 2 3 4 3 2 1 3 3 2 5 9 4 4 2 1 2 4 2 6 9 9 3 4 5 8 7 5 6 5 6 5 5 5 5 6
12 11 9 7 6 5 5 4 3 4 4 5 5 6 7 7 7 5 4 2 2 3 3 4 6 5 0 3 2 2 5 6 7 9 8 8 8 5 6 7 5 6 6 5 5 5 4 4 3 2 1 1 5 4 3 4 4 3 0 3 3 3 3 7 4 1 1 1 2 2 2 4 7 7 2 6 6 7 6 5 6 5 6 5 4 5 5 5
12 10 7 6 7 7 6 4 4 4 5 6 6 7 7 7 5 2 2 4 5 5 5 4 6 3 1 2 1 2 4 5 7 8 9 8 8 7 8 7 4 6 6 4 4 3 3 4 1 0 2 2 3 4 3 3 4 3 1 2 4 4 3 4 4 3 5 3 0 1 1 6 10 9 4 6 5 5 6 5 6 5 5 5 4 5 5 6
13 11 8 8 9 8 6 4 4 3 5 6 7 7 6 4 1 1 3 6 6 5 4 2 4 1 3 2 2 2 3 5 7 8 9 8 7 8 7 5 5 7 6 3 2 2 2 3 2 0 2 1 3 5 3 5 5 3 3 3 4 3 4 5 4 3 5 3 1 1 2 8 13 11 5 5 4 6 6 5 6 5 5 5 5 5 5 6
13 12 11 12 12 8 6 4 2 3 5 6 6 5 3 2 1 2 4 5 3 2 1 3 4 2 3 3 2 2 4 6 7 8 9 9 9 8 6 6 6 6 5 2 0 1 1 3 3 1 2 4 6 8 9 9 7 6 5 5 4 4 5 6 5 5 2 2 4 4 5 9 12 11 5 5 5 8 6 6 5 5 5 4 5 5 5 6
13 13 14 13 12 9 5 2 1 3 6 6 4 2 0 1 2 2 1 2 5 5 2 5 7 3 2 2 2 5 5 5 4 6 9 10 10 9 5 4 6 5 3 4 3 1 3 3 3 6 7 9 10 11 9 4 5 5 3 3 4 5 6 5 5 5 0 0 6 4 4 8 11 8 6 6 5 7 5 6 5 4 5 4 5 5 5 5
15 14 13 11 9 7 4 1 2 4 7 7 3 0 2 3 1 2 2 3 9 10 6 6 7 5 5 2 7 9 5 2 0 3 10 10 10 8 1 2 4 2 1 3 3 1 4 5 8 10 9 9 8 9 6 2 2 2 2 3 4 5 7 7 5 5 1 2 4 2 2 9 11 6 5 5 6 6 3 5 5 5 5 4 5 5 5 4
18 16 12 10 9 6 3 0 3 4 7 7 3 2 2 2 1 0 0 3 8 9 9 7 4 7 7 3 6 8 3 1 2 2 10 9 6 6 2 3 5 3 2 2 3 1 2 4 12 11 5 4 3 5 6 5 4 2 2 2 5 4 4 7 5 5 2 3 4 2 1 9 11 3 4 5 5 4 3 5 5 4 5 4 5 5 5 4
21 17 13 12 9 6 3 3 4 6 8 7 4 3 2 1 1 1 2 1 6 4 5 6 5 6 7 5 6 8 3 5 4 4 10 10 3 4 5 5 5 4 3 5 5 5 3 7 12 6 6 5 2 4 7 3 2 3 4 3 5 3 0 4 5 5 2 1 2 2 2 7 8 2 5 5 4 5 5 6 6 5 5 5 4 4 4 5
22 18 16 14 11 8 6 5 7 9 8 7 7 5 2 1 1 1 1 0 4 4 4 6 5 5 6 4 7 10 5 4 3 5 11 12 4 3 5 5 5 4 5 8 8 7 7 7 3 4 7 7 6 3 6 5 2 4 5 6 5 4 5 6 4 5 4 3 2 1 2 5 5 3 1 2 4 5 5 6 6 5 5 5 5 5 4 4
23 20 18 16 13 11 8 6 9 9 6 4 7 8 4 1 2 2 2 1 4 5 4 4 3 4 5 4 7 9 3 2 3 4 11 12 7 4 3 3 4 5 7 6 7 6 8 6 3 5 3 5 6 5 5 7 3 4 5 9 10 8 7 6 3 5 4 4 3 3 3 5 4 3 3 3 2 4 4 5 6 5 5 5 5 5 4 5
25 22 20 18 15 13 8 5 6 6 5 4 5 6 7 5 4 3 3 2 4 4 1 3 3 4 6 4 5 6 2 3 2 2 7 9 6 4 2 2 1 4 6 5 3 3 5 4 3 5 4 5 5 5 5 7 5 2 5 8 10 7 5 5 2 1 1 4 3 2 1 5 5 3 4 4 3 4 3 4 4 3 4 4 4 4 4 5
27 25 23 19 17 16 8 3 5 6 3 4 6 8 8 6 5 3 3 3 5 3 3 1 0 4 6 2 3 6 2 3 1 3 3 4 2 3 2 4 2 2 4 4 1 3 4 3 2 5 5 5 5 4 6 7 7 3 4 4 6 6 5 5 5 4 3 3 4 3 1 3 4 4 3 4 5 2 1 2 2 2 2 3 3 4 4 4
30 29 26 21 21 21 12 4 6 8 3 2 8 10 8 6 5 2 3 2 4 2 3 1 1 3 2 1 3 5 2 1 4 1 1 3 1 2 1 6 6 4 3 5 4 4 3 4 5 7 5 5 6 4 7 9 4 5 3 6 6 6 5 4 5 2 1 1 4 4 1 2 5 4 2 2 3 4 3 4 3 3 3 3 3 3 4 4
32 31 26 22 23 23 17 10 7 7 6 4 9 11 9 7 5 4 2 3 2 2 1 1 3 1 1 2 2 3 1 2 2 2 2 3 1 3 3 6 6 5 1 3 5 3 1 4 6 8 5 6 4 1 6 8 4 3 5 7 5 5 5 4 5 3 2 1 4 6 3 1 5 5 2 1 3 6 4 5 5 5 4 3 3 3 4 4
34 32 26 22 23 25 22 16 13 9 6 7 10 12 10 5 3 3 3 4 1 1 0 1 2 1 4 6 1 0 2 1 0 1 2 1 2 4 1 2 5 4 1 3 2 3 2 2 3 5 4 5 5 3 2 4 4 5 6 6 6 5 5 3 3 4 2 3 6 9 8 5 5 5 3 3 3 4 4 4 5 5 4 5 4 3 3 3
36 32 28 24 25 26 18 13 19 16 9 10 13 12 7 2 3 4 7 2 1 1 2 2 1 3 7 7 3 2 2 1 0 3 2 1 2 3 1 1 3 3 2 4 3 4 4 2 2 2 2 4 6 5 3 3 3 5 4 4 3 3 4 4 4 3 0 5 5 5 4 5 5 5 3 4 2 2 3 5 8 9 7 6 5 4 3 3
35 33 30 26 26 27 19 14 22 22 14 13 14 9 4 1 2 6 4 1 1 3 4 4 3 4 6 4 2 4 4 2 2 4 4 3 3 3 3 4 4 2 2 4 3 3 3 4 3 2 1 4 6 5 3 4 4 5 4 5 3 2 3 3 3 0 3 6 3 1 1 2 6 6 4 4 3 3 4 4 8 11 10 7 6 5 4 4
35 33 31 29 27 28 25 20 21 22 20 18 12 4 2 4 7 6 5 2 2 3 3 4 3 4 7 4 2 4 3 2 4 3 2 3 3 5 3 3 6 4 1 4 3 0 3 5 2 1 2 3 7 6 2 1 2 4 5 5 4 2 1 2 3 2 4 5 3 2 1 2 5 3 2 3 4 5 6 5 7 11 11 9 7 6 5 4
35 34 32 31 29 28 27 24 21 23 26 20 9 4 5 7 6 6 9 7 1 2 2 4 5 5 6 4 4 5 3 2 5 5 2 3 3 4 5 4 5 4 3 3 2 4 3 4 3 6 3 4 8 6 5 6 4 4 4 5 5 5 4 4 4 3 4 4 3 2 1 3 3 2 2 3 4 4 3 0 6 9 8 7 6 5 5 5
34 35 33 31 31 31 30 28 25 27 27 15 5 6 9 10 4 4 8 6 2 1 2 3 6 6 3 3 3 5 4 3 4 5 3 4 4 4 4 6 7 5 4 4 2 3 4 5 6 3 2 5 8 4 5 7 3 2 2 4 3 4 5 2 3 5 3 2 2 2 3 4 4 1 2 2 3 5 5 5 8 7 6 6 6 5 5 4
34 34 32 30 31 33 34 33 30 32 25 9 5 9 9 7 3 3 4 4 5 5 6 3 3 4 4 2 2 5 3 2 4 4 2 3 3 4 4 4 7 8 6 5 3 2 3 4 5 2 2 3 5 3 3 3 3 2 2 3 4 4 6 3 2 1 3 2 4 2 3 5 2 1 3 4 5 5 5 5 6 6 6 6 5 5 5 5
30 27 23 25 31 36 38 36 34 33 20 6 8 10 6 4 3 3 2 2 4 6 8 4 3 5 5 3 4 6 3 2 4 4 3 3 3 5 5 4 6 12 11 5 2 3 4 3 4 1 1 2 1 2 3 2 3 5 3 5 3 2 4 3 1 2 2 3 4 1 4 4 2 2 3 4 1 1 2 3 5 4 5 6 6 6 6 6
26 19 13 21 34 36 34 34 33 25 9 4 11 11 4 3 2 1 1 2 3 4 5 5 5 4 5 5 4 5 5 4 4 5 3 3 3 4 6 3 4 9 11 5 1 2 4 1 5 1 2 2 3 3 3 4 2 5 4 3 4 3 1 2 2 2 2 4 3 3 4 4 4 4 1 3 6 6 5 4 6 7 7 7 7 7 7 6
20 10 5 17 31 31 32 33 27 14 4 5 12 10 3 2 2 1 2 2 3 3 4 3 1 1 3 5 3 3 5 6 6 5 3 3 4 3 5 3 3 4 5 6 4 2 3 2 4 2 0 1 3 2 3 2 1 3 2 1 2 2 4 3 3 3 3 4 3 4 5 4 5 5 6 9 10 10 9 8 8 10 9 8 8 8 8 7
11 4 2 12 26 30 33 29 15 6 6 7 8 6 2 2 3 2 1 1 2 1 2 2 2 2 2 2 2 3 4 5 6 5 3 4 4 4 3 3 4 2 2 6 5 1 2 2 3 2 2 1 1 2 6 6 3 2 2 2 1 1 2 1 1 3 3 3 3 4 5 5 4 3 7 8 7 11 12 10 9 9 9 10 9 8 7 7
4 2 2 11 25 31 28 17 6 5 6 5 4 4 2 2 3 2 1 2 1 0 1 3 3 3 3 3 2 3 4 4 5 4 3 4 3 2 3 3 5 5 4 4 4 2 2 2 3 1 1 3 4 4 3 5 4 4 4 5 5 3 2 2 4 2 2 2 3 4 6 6 3 1 3 4 5 9 11 10 9 9 10 10 9 8 9 9
3 2 2 15 31 31 18 6 3 4 4 4 3 2 2 2 3 4 2 2 1 0 2 2 2 3 4 3 3 4 5 4 5 4 3 4 4 3 3 3 5 5 5 4 3 3 3 3 3 2 3 5 4 3 1 3 1 2 2 2 3 3 4 5 7 3 2 1 1 1 4 5 2 1 3 3 4 7 9 9 9 9 10 10 9 9 10 10
3 2 3 17 33 28 12 5 4 3 4 3 2 1 2 2 3 3 3 3 2 2 1 1 2 3 4 3 3 4 4 3 4 4 2 3 4 3 2 2 3 4 5 2 2 2 2 2 2 1 2 1 3 4 3 3 3 1 2 1 3 3 2 3 4 2 2 3 1 1 5 4 0 1 2 2 1 5 7 7 8 8 8 9 10 10 10 9
2 1 2 16 32 24 8 6 8 7 6 2 2 3 0 1 4 5 5 5 4 3 3 2 3 3 3 3 3 5 6 4 3 3 3 3 3 1 3 2 2 2 2 2 3 3 1 2 3 1 2 1 2 3 3 3 1 2 3 1 2 3 4 3 1 3 1 4 4 3 7 4 1 3 3 3 2 4 5 5 5 6 6 7 8 8 8 6
3 1 2 9 22 16 4 4 6 8 9 5 4 6 3 1 3 5 6 6 4 4 4 2 2 3 3 2 2 3 5 4 2 2 2 3 2 2 4 4 3 1 1 1 4 4 2 2 3 3 6 7 4 2 3 2 1 1 2 3 3 5 6 3 2 3 4 4 5 6 7 2 2 4 4 3 1 2 4 3 2 4 5 6 6 6 7 6
3 1 1 2 7 6 3 1 1 5 9 9 5 6 8 6 2 1 5 6 4 4 3 1 2 3 2 3 3 3 5 3 2 2 3 3 2 1 2 3 3 0 1 3 5 4 3 2 5 7 9 9 5 4 3 3 4 4 5 7 6 6 7 5 3 4 4 2 4 8 4 1 2 3 4 4 2 3 4 2 3 5 5 6 6 6 6 6
1 2 3 2 1 4 4 2 2 2 5 8 6 4 9 10 4 1 4 4 3 5 3 1 3 4 4 6 5 4 5 4 3 3 3 3 2 0 1 2 3 1 2 3 3 3 3 3 7 11 12 9 4 4 4 4 5 7 8 9 7 5 7 7 5 5 4 3 8 8 4 3 6 6 6 7 6 5 5 4 5 6 6 6 5 5 6 6
1 1 2 1 0 3 5 4 5 3 4 7 6 5 9 13 9 5 4 2 2 5 4 1 4 8 9 9 6 4 5 5 5 4 3 3 3 1 1 1 1 1 2 2 1 3 4 5 6 8 9 6 3 4 5 5 3 4 6 9 7 7 8 8 7 8 8 6 9 5 5 6 8 6 7 8 7 6 6 7 6 4 4 5 5 7 7 7
1 1 1 1 1 1 2 1 5 6 6 5 4 5 9 13 13 8 3 3 2 4 6 6 7 9 9 8 7 6 7 6 6 6 5 4 3 3 1 1 2 1 3 3 1 2 3 3 3 5 5 4 3 3 4 5 3 3 6 9 6 5 7 7 9 10 7 6 8 6 5 9 9 7 7 7 6 5 5 5 4 4 6 7 7 7 7 6
1 0 0 2 1 0 2 2 4 6 6 4 3 4 4 6 9 6 3 5 5 3 5 9 9 7 8 8 8 8 10 9 7 7 7 6 4 5 4 3 3 2 2 3 2 1 2 2 3 4 3 2 1 0 2 3 3 5 10 10 3 3 5 9 10 6 2 6 9 7 8 11 10 6 5 5 5 4 5 7 6 6 7 6 6 6 6 6
3 2 2 1 0 1 0 1 2 3 4 5 5 4 2 4 7 5 1 4 7 5 6 9 9 5 5 8 10 12 13 10 8 7 7 8 7 6 5 5 7 6 4 4 2 2 3 1 2 3 3 3 1 2 2 2 1 6 13 11 5 5 8 9 6 5 7 9 9 6 7 10 8 1 2 5 6 5 6 7 7 6 5 5 6 6 6 7
4 3 3 3 0 1 2 1 2 3 4 4 5 4 5 7 7 6 2 3 3 4 5 8 10 6 5 9 13 13 9 6 4 3 3 3 1 2 1 4 7 7 7 6 2 1 4 4 2 3 4 2 1 2 3 4 2 7 11 9 11 11 12 9 4 7 10 8 6 7 8 8 4 2 2 6 6 6 7 7 6 6 5 6 6 6 6 7
Wind_Direction
264 253 238 234 244 248 245 256 256 246 259 284 289 297 304 303 309 318 306 303 304 305 310 311 317 320 321 327 328 330 329 326 325 317 300 293 259 200 205 229 211 194 177 173 167 157 131 90 80 29 42 49 12 333 349 8 63 53 77 103 224 191 198 184 186 191 150 267 273 321 24 155 282 303 320 313 336 331 319 302 259 284 289 256 270 283 296 305
261 252 243 235 240 241 243 253 253 239 261 300 310 300 302 301 315 322 293 293 300 298 307 309 313 316 320 328 328 332 331 327 323 312 301 282 195 176 182 164 181 184 174 177 178 155 117 77 322 54 44 41 349 346 359 355 66 79 116 112 242 203 208 196 184 191 175 240 247 288 303 213 236 252 354 305 291 330 331 306 312 334 300 281 282 287 302 308
258 252 248 240 240 237 239 249 249 245 271 300 317 326 324 296 306 323 305 297 299 299 304 303 307 313 321 327 332 338 334 333 322 307 296 162 168 169 154 148 164 172 174 186 189 156 101 131 139 79 44 51 336 358 24 355 32 134 123 100 246 213 234 237 200 206 218 215 248 286 284 208 236 229 328 228 274 312 305 284 308 331 316 303 294 305 317 312
253 246 245 242 240 237 239 239 234 243 264 282 304 323 329 319 311 311 313 306 300 299 297 299 303 308 319 327 335 338 342 348 314 212 138 149 161 157 145 155 167 174 183 176 177 173 44 76 99 72 57 49 329 4 21 303 348 149 134 186 230 190 253 250 209 219 234 199 215 278 354 295 256 199 177 166 305 310 277 245 228 274 306 314 312 320 327 325
250 241 239 236 233 237 239 237 243 254 271 285 301 318 328 330 321 309 312 310 301 295 293 295 296 301 312 321 332 335 359 16 288 174 156 170 162 152 153 167 171 181 187 158 159 164 26 87 84 54 58 37 339 24 273 273 103 153 220 208 201 152 246 262 199 205 216 174 254 319 322 297 282 187 179 170 270 270 258 249 200 246 295 317 328 336 357 12
256 245 241 236 233 241 243 245 262 274 282 304 318 325 326 322 318 311 312 311 303 296 291 290 291 296 301 311 327 343 55 46 259 205 205 197 180 173 164 180 178 189 194 180 157 134 95 71 68 63 59 28 328 202 256 292 65 212 276 274 231 181 232 279 237 212 164 85 285 293 290 315 4 309 225 184 231 240 253 6 35 314 342 15 31 26 28 36
260 247 243 236 232 245 250 251 259 267 284 314 320 317 316 313 314 313 313 312 305 299 292 286 288 290 294 301 319 36 89 244 269 269 240 207 196 199 170 201 197 198 201 198 179 139 118 88 100 143 87 27 209 221 257 322 28 160 263 303 270 200 220 261 284 276 284 250 250 246 305 302 282 283 311 252 250 253 275 34 49 38 47 53 55 46 37 34
260 247 238 232 232 240 243 245 246 251 272 304 312 316 321 318 318 317 316 316 313 309 299 287 286 288 294 271 167 14 350 254 274 267 236 211 207 211 207 232 216 208 200 203 198 163 142 132 170 154 99 254 184 181 269 359 15 179 230 278 280 242 244 266 293 287 284 263 240 223 281 254 218 238 329 268 265 284 343 58 63 69 60 56 56 46 39 34
261 246 236 231 227 220 206 209 204 203 241 324 317 321 324 324 328 326 321 322 322 314 305 294 288 283 273 149 98 17 271 247 276 264 233 218 216 219 232 240 218 207 190 198 196 164 171 177 193 181 168 196 171 183 106 56 282 212 212 263 289 294 290 297 292 276 273 253 175 214 271 262 225 229 263 258 266 4 45 56 62 75 59 49 54 45 41 36
260 242 234 230 214 196 184 178 179 179 184 268 315 320 322 326 331 330 325 325 324 315 310 297 287 271 225 142 98 177 254 251 283 262 236 220 217 225 237 240 217 202 183 185 186 160 171 197 181 146 143 140 157 177 112 151 210 202 203 267 270 286 296 283 267 269 267 249 203 222 268 291 302 307 265 267 1 57 53 48 47 67 59 47 46 36 37 35
259 237 229 222 200 188 183 177 181 181 193 260 316 319 323 328 329 329 329 327 326 320 311 291 279 250 190 140 133 208 254 273 268 251 228 217 218 223 220 225 208 195 188 173 192 192 199 199 153 113 124 172 158 152 238 190 155 172 234 305 288 303 296 250 254 273 267 261 206 192 253 309 37 244 239 247 69 73 72 57 44 63 58 44 43 36 35 30
255 229 219 210 189 184 184 181 184 189 215 286 309 318 325 326 327 329 331 330 327 322 309 288 249 200 156 106 201 224 241 258 263 235 218 209 196 195 180 189 189 195 206 183 182 193 188 185 144 119 215 162 140 294 225 193 117 113 47 326 301 342 318 266 257 280 188 232 181 157 264 297 179 226 239 271 40 68 80 67 56 66 53 43 40 36 37 26
248 219 202 192 182 180 184 182 185 212 249 283 303 318 321 322 329 329 332 332 325 320 306 279 218 183 150 313 237 231 240 250 257 223 193 180 168 175 168 171 178 193 214 191 157 149 152 179 151 135 158 120 178 244 100 58 63 298 37 28 305 353 320 279 60 28 353 226 177 146 267 275 245 244 257 322 14 65 71 62 70 70 50 45 37 37 38 26
239 210 192 189 183 181 191 190 197 238 270 282 299 313 316 323 327 326 333 332 323 316 294 217 178 163 148 251 252 245 244 243 241 214 185 180 173 180 183 158 154 159 173 163 141 125 134 162 136 105 96 98 231 244 30 8 15 310 340 41 346 344 280 292 353 164 312 343 115 123 224 266 271 270 284 334 23 71 70 67 74 68 56 46 34 38 33 27
233 211 199 196 193 204 207 199 221 249 268 278 296 312 315 322 323 328 336 332 333 330 182 150 155 142 103 277 263 251 236 227 222 212 202 201 195 192 189 168 145 134 140 146 133 123 124 129 113 104 221 7 52 59 348 346 3 25 293 305 331 204 265 308 303 184 201 327 74 120 201 275 276 278 322 35 38 65 80 82 73 65 59 47 34 36 27 23
238 218 205 196 194 212 205 196 240 256 268 280 297 312 316 321 321 329 345 4 53 103 115 130 149 132 46 270 235 215 219 212 211 211 208 204 204 194 168 160 145 134 138 135 133 134 102 84 76 107 155 44 72 85 35 358 334 356 184 251 267 210 269 318 321 238 136 89 45 102 209 278 278 274 14 46 29 66 93 88 76 68 56 48 38 32 26 20
236 216 207 211 209 203 196 210 245 260 277 282 296 311 317 320 314 326 61 101 101 98 97 130 145 120 284 225 175 245 210 196 198 194 195 195 198 180 152 142 128 128 123 110 123 124 53 47 40 332 60 69 107 102 60 313 287 316 356 234 248 215 229 298 307 349 46 90 354 18 215 258 274 279 338 16 14 81 103 98 85 72 58 49 40 36 32 25
230 212 208 232 227 201 194 223 237 268 289 291 305 315 320 325 289 157 129 127 104 78 68 112 129 113 271 209 192 223 158 169 176 171 177 175 175 170 151 132 121 116 94 60 74 92 11 24 70 27 33 77 141 122 165 229 215 216 216 210 260 254 233 259 266 300 16 29 275 312 263 265 274 281 317 5 38 90 104 103 92 74 65 51 40 40 32 27
225 215 216 226 221 205 206 219 231 289 298 300 310 320 335 14 91 162 156 141 121 114 195 210 161 151 248 246 209 142 121 143 156 163 166 155 156 151 127 111 106 104 98 87 348 113 111 57 70 172 208 191 187 176 196 210 186 191 200 177 213 258 253 246 249 261 311 341 276 253 253 262 270 281 316 349 50 91 100 94 85 75 70 56 47 40 29 33
217 219 225 222 209 200 198 201 298 315 308 305 311 337 295 61 29 306 225 185 210 204 193 204 193 196 270 266 155 135 128 136 150 172 167 160 151 130 96 76 67 67 116 160 181 127 112 129 198 220 211 200 200 199 201 191 139 144 155 174 213 240 265 263 259 280 330 233 270 254 257 269 270 286 326 337 33 68 79 89 84 76 71 56 54 38 27 29
214 219 220 216 209 198 170 143 327 316 310 306 307 246 191 174 127 293 279 260 244 234 244 228 209 246 263 187 157 154 138 128 317 171 168 169 154 142 115 59 89 88 209 170 146 66 99 159 224 230 211 197 196 198 207 229 155 140 181 252 267 240 259 266 254 293 352 179 262 324 324 280 274 292 342 357 47 43 41 99 98 88 83 63 56 39 24 16
213 216 210 209 216 206 164 212 299 300 301 301 292 226 231 210 153 266 81 290 271 242 239 244 239 261 259 232 185 164 129 209 262 215 175 164 154 174 177 102 143 182 203 144 111 78 110 207 239 236 181 138 130 162 187 220 214 192 160 219 268 248 277 285 277 320 29 167 261 327 312 277 281 316 26 26 71 57 36 88 95 94 89 66 57 41 26 20
208 209 209 210 212 214 212 248 279 286 287 285 265 217 257 303 81 50 91 286 293 265 224 227 224 239 242 256 216 173 177 213 211 231 185 159 151 185 154 144 168 156 165 185 161 152 179 239 246 220 135 148 179 132 142 159 194 181 154 176 249 249 307 279 290 333 5 159 265 237 219 273 283 352 55 38 82 85 61 75 73 75 85 74 71 55 39 35
203 204 209 208 207 212 217 245 270 272 273 269 249 228 245 318 140 74 59 334 290 277 237 215 204 214 217 232 197 178 204 216 186 216 183 162 143 154 168 168 150 150 198 201 181 181 216 243 237 124 138 181 207 173 141 148 215 229 202 200 233 238 215 228 281 332 337 356 8 33 309 287 276 263 155 63 79 80 64 73 67 56 67 70 69 58 45 46
199 203 205 204 203 202 205 239 258 252 246 250 243 230 216 202 165 117 63 10 287 289 277 216 195 213 198 157 165 172 179 225 217 207 177 169 153 136 195 170 139 200 211 188 181 212 242 242 104 102 131 167 192 214 182 167 195 270 235 211 221 228 223 232 313 360 354 334 346 31 326 291 303 291 212 174 81 63 47 62 70 55 51 58 60 53 41 46
198 202 203 203 200 195 201 237 242 220 211 223 226 207 190 182 171 141 83 32 275 269 252 191 175 184 177 140 156 147 94 256 247 127 160 176 167 124 163 175 110 217 194 160 176 216 251 249 139 150 145 144 187 239 222 171 147 271 247 207 211 214 212 222 196 85 247 261 298 46 217 268 314 318 223 180 104 72 55 56 71 65 56 64 61 53 44 43
200 203 206 208 203 197 195 208 197 172 168 221 198 179 180 180 178 167 72 3 274 206 138 215 167 151 169 173 157 140 164 248 95 80 139 163 181 88 134 191 160 209 169 128 202 234 217 225 184 168 142 151 197 245 223 163 132 238 245 153 162 179 193 199 165 167 224 253 319 13 111 270 293 281 248 157 124 87 88 84 78 91 82 78 73 63 59 49
203 207 212 214 210 204 195 178 181 180 189 190 173 173 172 175 178 125 74 275 276 107 114 245 86 108 145 87 79 119 196 260 109 220 349 101 179 64 131 209 180 184 165 142 213 256 184 198 201 176 159 184 207 223 190 160 151 244 208 117 124 149 158 133 121 149 318 24 304 306 32 281 264 267 317 115 182 245 207 190 191 168 152 111 92 74 68 62
206 212 216 215 212 206 200 202 196 199 216 171 162 173 167 171 169 81 74 232 252 85 83 122 129 68 77 115 66 82 76 21 121 245 357 92 173 68 162 206 158 157 153 146 214 245 170 219 199 159 168 202 200 236 182 170 194 207 132 96 74 78 86 79 98 115 34 34 240 240 187 225 270 271 293 130 236 250 209 188 194 179 172 156 124 96 84 75
210 215 218 215 209 203 201 211 215 206 200 177 168 167 158 155 116 97 219 229 141 117 100 119 165 145 123 139 178 15 111 33 70 38 28 101 25 35 139 163 101 127 16 1 253 249 316 280 188 149 178 186 141 87 143 159 158 138 105 68 44 30 41 43 56 84 45 279 235 220 193 189 264 278 232 194 210 214 172 162 180 177 176 174 160 139 123 105
212 215 219 216 206 197 191 208 216 207 195 185 170 154 146 108 77 183 221 225 74 145 134 148 189 135 143 151 169 177 126 60 121 118 115 152 59 44 73 127 85 82 354 332 299 309 335 326 259 226 169 129 99 78 48 43 86 107 92 78 64 339 10 23 357 47 153 255 255 245 197 177 233 263 234 224 248 219 181 176 178 176 177 180 170 159 161 155
213 215 218 219 208 196 192 210 213 204 199 184 162 142 128 127 214 216 216 58 156 195 166 173 186 162 163 147 152 171 141 137 185 145 145 151 158 177 181 176 162 98 323 253 256 335 304 243 269 304 201 137 108 86 35 14 45 87 103 100 92 326 359 358 306 276 230 252 271 282 136 190 240 245 228 241 298 301 264 225 184 173 172 174 171 169 176 177
214 217 219 221 212 201 203 216 214 203 194 177 161 144 125 192 225 204 183 203 199 176 146 135 129 143 150 141 192 181 127 173 188 163 150 127 155 218 243 199 160 131 170 208 190 170 283 292 299 159 270 190 148 145 156 179 149 144 147 134 126 132 95 275 266 273 269 274 303 278 215 257 273 270 228 248 288 292 279 252 189 168 166 166 165 170 175 175
213 216 219 221 218 213 212 213 215 204 188 170 163 174 175 212 226 165 185 215 198 105 107 115 111 120 147 175 214 175 135 221 180 143 133 124 143 222 243 227 175 125 105 145 171 173 193 290 218 179 234 193 174 180 160 144 152 176 158 135 145 153 169 220 220 208 258 287 311 283 215 201 225 268 260 257 297 325 330 304 144 144 149 149 149 163 172 175
215 217 220 219 216 219 216 213 215 201 182 166 173 192 196 218 217 149 190 198 158 108 70 96 115 125 184 242 242 190 173 213 169 131 145 163 174 199 201 207 190 156 130 160 214 165 164 259 249 235 275 176 180 191 125 113 131 203 122 110 160 178 162 194 196 169 183 299 295 221 220 223 198 221 332 353 17 24 32 71 111 126 136 139 151 168 175 180
214 215 218 213 213 217 216 217 211 192 178 169 199 204 211 218 185 176 197 159 162 152 114 93 100 133 204 231 223 216 195 147 152 147 190 194 205 205 198 215 191 177 172 166 202 165 144 266 281 344 340 186 188 194 131 134 177 160 129 173 212 179 132 119 264 109 94 260 267 193 238 284 310 337 354 31 46 44 45 77 114 135 143 147 169 180 185 193
202 203 207 207 212 215 214 213 201 185 180 184 205 211 220 214 175 179 210 146 149 139 131 167 188 166 193 194 199 204 181 136 155 165 204 209 224 199 197 243 186 185 197 182 210 202 149 258 284 113 169 268 269 126 63 24 136 127 179 208 184 117 98 101 238 341 42 241 268 214 219 257 256 253 339 28 62 117 104 116 124 144 160 169 186 193 199 201
185 186 201 211 211 209 206 202 190 181 184 203 213 224 212 193 208 120 166 136 109 127 152 192 199 177 183 187 195 180 169 179 172 176 189 201 243 191 171 210 181 191 207 176 187 256 135 224 287 142 159 287 355 78 52 350 85 128 187 191 123 133 153 109 166 218 233 236 271 283 253 240 212 216 214 207 211 195 179 167 163 178 185 187 197 204 208 206
172 169 219 216 207 201 195 190 180 178 204 205 216 230 188 166 249 236 171 117 81 126 174 202 192 140 170 177 168 156 174 181 167 176 183 174 229 207 161 177 175 205 215 164 172 250 119 161 277 327 322 298 21 81 178 242 38 90 121 111 80 155 167 156 163 170 195 221 251 285 291 265 232 204 180 200 202 178 175 186 188 189 190 194 199 202 205 204
158 157 268 203 196 194 187 180 173 187 213 205 213 217 153 143 224 235 219 88 71 128 182 196 158 140 173 172 157 166 174 176 168 180 198 176 196 222 192 159 146 163 182 164 177 210 99 159 237 312 351 131 184 215 192 189 176 142 154 179 208 140 123 191 207 137 147 187 210 257 272 264 256 195 180 205 198 174 178 187 191 193 194 201 205 202 201 202
149 196 230 181 183 182 175 171 180 204 207 216 212 191 155 147 175 186 31 67 115 331 119 155 163 166 175 165 191 189 160 162 174 177 207 195 178 207 205 164 154 154 127 141 181 196 161 161 174 187 145 183 230 257 209 199 193 172 186 197 191 171 140 230 246 190 144 181 183 215 256 261 259 208 206 226 198 181 182 179 183 195 199 204 210 203 201 205
169 205 178 173 176 171 163 174 205 186 214 223 199 167 142 145 159 163 133 86 131 117 77 122 159 174 182 176 186 180 155 162 185 182 203 202 183 190 196 160 154 143 120 138 191 182 136 120 141 193 207 210 250 299 258 228 184 130 194 205 170 162 163 208 236 218 149 234 159 141 261 263 246 250 270 263 212 186 182 175 178 195 201 205 211 209 210 215
183 190 141 172 174 166 157 201 195 189 237 212 150 147 134 146 164 159 165 173 161 151 150 185 187 192 203 184 159 170 174 174 179 180 193 202 201 226 239 194 168 128 111 146 192 133 100 109 145 253 305 344 335 332 335 3 54 85 268 153 140 178 171 202 228 161 139 230 184 155 250 248 304 338 311 303 189 166 182 183 177 188 200 207 212 214 217 218
153 123 87 177 181 175 168 197 194 206 223 177 136 194 140 95 180 171 179 189 172 155 167 191 197 198 202 169 149 177 195 192 183 189 184 182 202 299 347 317 242 157 135 172 178 165 174 146 133 169 269 291 350 337 323 332 357 210 245 221 175 152 105 85 109 107 182 224 177 206 245 238 322 337 353 20 84 149 195 201 175 184 203 215 221 222 224 217
132 102 9 184 189 192 201 191 189 203 205 197 193 190 183 257 212 193 189 186 176 162 163 190 190 161 164 158 128 169 197 195 187 190 172 174 215 343 5 357 345 299 313 43 117 135 146 158 149 172 218 227 223 205 217 235 212 198 219 218 211 173 151 148 134 156 220 213 169 215 249 255 332 322 322 334 25 181 230 233 206 218 216 219 227 227 226 216
140 147 49 183 204 220 246 129 161 204 199 198 205 197 198 211 247 223 189 190 189 160 140 113 133 128 159 165 143 179 214 213 170 161 168 183 212 310 346 13 37 218 269 81 107 114 98 170 198 203 226 238 234 219 198 157 160 199 213 208 204 189 173 156 131 185 210 191 208 232 234 130 260 248 249 269 259 226 243 249 238 242 236 230 233 229 223 216
136 158 162 159 225 229 233 219 190 208 194 190 191 195 206 211 215 168 193 202 180 155 141 78 145 169 185 172 166 195 209 208 185 163 164 182 193 354 15 70 66 88 163 136 133 114 114 209 214 213 233 244 220 207 194 164 187 203 210 217 208 177 164 165 184 204 171 171 243 237 158 162 239 226 211 230 232 225 240 245 235 236 236 229 222 219 215 207
132 117 171 148 117 212 228 215 187 190 194 187 183 187 205 210 206 194 191 183 152 168 181 192 194 197 187 170 170 186 191 200 205 188 170 179 177 122 55 82 94 72 122 149 178 115 145 226 213 199 227 228 170 189 182 171 208 208 211 226 211 177 170 177 209 216 185 204 252 247 151 200 241 229 204 216 222 215 218 227 228 234 240 226 209 210 212 200
105 46 281 1 57 206 270 199 164 189 206 188 182 202 204 206 206 198 159 127 154 206 198 201 213 208 193 175 168 182 193 195 206 203 186 181 174 149 139 227 199 114 110 145 204 133 164 220 188 179 214 202 181 210 167 166 216 242 241 241 223 180 174 186 220 224 206 229 263 274 257 249 250 234 214 214 210 206 227 248 255 254 245 233 219 215 211 196
95 222 257 28 49 108 342 24 145 190 212 189 205 222 199 197 200 190 157 160 174 199 200 210 220 203 192 194 190 209 215 199 201 204 175 167 186 183 196 204 158 107 131 163 189 235 213 201 131 147 202 215 228 273 124 165 208 235 250 251 227 126 186 217 231 227 210 248 254 261 269 267 263 239 212 225 219 210 246 265 261 249 234 219 215 216 207 201
91 59 81 87 221 179 51 23 137 184 215 206 215 210 161 205 202 178 217 213 186 180 185 205 218 203 186 202 209 226 230 212 213 215 177 179 199 195 203 192 156 154 177 177 174 195 205 209 81 120 194 217 190 150 140 92 59 257 258 247 188 170 223 233 222 194 209 229 238 247 254 258 265 178 154 246 245 226 241 246 244 246 222 192 201 204 203 208
104 52 60 92 272 206 166 188 157 192 225 218 213 204 198 218 201 164 206 266 199 192 184 193 209 207 193 211 221 229 224 180 181 198 151 152 139 101 157 173 154 161 173 170 161 155 168 163 132 167 198 191 102 142 128 70 3 263 255 221 187 205 236 244 226 212 212 202 200 223 235 247 260 111 198 253 245 231 240 233 225 227 206 196 208 203 206 216
Height
823 823 822 823 823 823 823 823 822 822 823 823 823 823 823 823 823 823 823 823 823 822 822 822 821 821 820 819 819 818 817 815 814 813 812 811 810 811 812 812 812 812 813 813 814 814 815 815 815 815 815 816 819 819 818 819 820 822 830 836 836 842 837 830 831 830 828 826 823 821 821 822 821 818 815 814 813 813 812 811 810 809 807 806 804 803 803 802
822 822 822 822 822 822 822 822 822 822 823 822 823 823 823 823 823 823 823 823 822 822 822 821 821 820 820 819 818 817 816 814 813 811 810 809 810 811 811 811 812 813 813 814 814 814 815 816 816 816 817 819 822 821 820 821 821 826 836 838 835 837 831 825 825 824 825 825 822 822 822 822 821 820 817 817 817 815 814 809 808 809 808 806 804 803 803 802
822 822 822 822 822 822 822 822 822 822 822 822 823 823 823 823 823 823 822 823 822 822 821 820 821 819 819 819 818 818 815 814 813 811 809 809 810 811 811 811 812 813 814 814 815 815 816 816 816 817 819 822 824 824 823 822 824 829 835 836 831 829 827 825 824 822 823 822 822 822 823 823 820 820 818 819 819 816 815 811 808 808 807 806 805 804 803 802
822 822 821 821 821 821 821 822 822 822 822 822 822 822 823 823 823 823 822 822 821 821 820 820 820 819 819 818 818 818 814 816 814 810 809 810 810 811 811 812 812 813 814 814 815 815 816 817 817 819 821 824 827 826 826 824 825 830 832 830 828 829 827 822 822 822 822 823 823 823 825 823 819 819 819 819 821 817 812 810 809 808 807 807 805 805 804 803
821 821 821 821 821 821 821 821 821 822 822 822 822 822 822 822 822 822 822 822 821 821 820 820 819 819 819 818 819 817 817 823 816 809 810 811 811 811 811 812 812 813 814 814 815 816 816 817 818 820 823 825 827 826 827 826 826 829 828 826 827 830 827 819 821 823 822 824 824 823 823 820 817 818 818 818 821 817 808 806 808 808 808 808 807 806 805 805
821 821 821 821 821 821 821 821 821 821 822 822 822 822 822 822 821 821 821 821 820 820 819 819 818 819 818 818 819 816 821 826 814 809 812 811 811 812 812 812 812 813 814 815 815 816 817 818 820 823 825 826 828 827 827 828 827 829 828 825 826 828 826 820 820 821 823 824 822 822 821 819 819 818 817 817 816 809 804 806 809 809 809 809 809 809 808 808
820 820 820 820 820 820 820 821 821 821 821 821 821 821 821 821 821 821 820 820 820 819 819 818 818 818 818 818 819 818 822 820 810 811 812 811 812 812 812 812 812 813 814 815 815 817 818 820 822 825 827 827 829 828 828 828 828 831 829 826 825 827 825 820 819 820 822 822 820 821 820 820 820 818 817 814 808 804 804 808 809 810 810 810 811 812 812 811
820 820 820 820 820 820 820 820 820 821 821 821 821 821 821 820 820 820 820 820 819 819 818 818 818 818 818 818 819 821 823 816 810 811 811 811 812 811 812 812 812 813 813 814 815 816 818 820 822 825 827 828 829 828 829 829 829 831 830 826 825 825 822 820 821 819 820 821 820 822 819 818 818 817 816 809 802 803 806 808 810 810 811 812 813 814 814 813
819 819 819 819 819 819 820 820 820 820 820 821 821 820 820 820 820 820 819 819 818 818 817 817 817 817 818 818 819 824 819 812 810 811 810 811 811 811 812 812 813 813 813 815 815 816 818 820 821 822 825 827 828 828 828 830 830 829 828 827 825 823 821 820 820 817 818 819 819 820 816 816 817 817 813 804 802 805 806 809 810 810 812 815 815 815 815 814
819 818 818 818 818 819 819 819 820 820 820 820 820 820 820 819 819 819 818 818 818 817 817 817 817 817 818 817 821 824 815 809 811 810 810 811 811 812 812 812 813 813 814 815 815 816 817 819 819 819 822 825 827 829 829 830 830 828 828 827 825 825 824 822 818 816 819 818 817 818 815 816 818 818 811 801 805 808 806 810 811 811 815 818 818 817 817 816
818 818 818 818 818 819 819 819 819 819 820 819 819 819 819 819 818 818 818 817 817 817 816 816 816 817 817 817 821 820 811 809 811 809 810 810 811 812 811 812 812 813 814 815 815 816 816 817 817 818 822 825 827 829 829 827 828 827 828 827 825 825 823 820 818 817 818 816 815 817 816 817 819 818 808 801 807 809 808 812 814 816 819 820 820 820 819 819
817 817 817 817 818 818 818 819 819 819 819 819 819 818 818 818 818 818 817 817 816 816 816 816 816 816 817 818 818 814 809 810 810 809 810 810 811 811 811 812 812 814 814 814 816 815 816 816 816 819 823 824 827 829 828 826 828 827 829 829 826 825 820 816 816 817 817 814 813 816 817 816 818 813 802 801 808 809 810 815 818 820 822 823 823 822 822 821
816 817 817 817 818 818 818 818 818 819 818 818 818 818 818 817 817 817 816 816 815 815 815 815 816 816 818 818 813 809 809 809 809 809 810 810 811 811 811 812 813 814 814 814 815 815 816 816 816 820 821 824 827 828 826 827 828 828 831 832 830 831 824 815 818 819 816 815 813 817 821 815 810 806 801 805 808 806 810 817 822 823 824 825 825 824 824 823
816 816 816 817 817 818 818 818 818 818 818 818 817 817 817 816 816 816 815 815 814 814 814 814 815 816 818 815 808 807 808 808 809 809 809 810 810 811 812 812 813 813 814 815 815 815 816 816 817 819 821 824 825 825 827 830 830 831 833 836 839 839 825 814 819 820 815 817 814 817 825 816 804 803 805 808 807 805 811 819 824 825 826 828 827 827 826 825
815 815 816 816 817 817 817 818 817 817 817 817 816 816 816 815 815 814 815 814 813 814 813 814 815 815 818 813 806 807 807 807 808 808 809 810 810 811 812 812 813 814 814 815 815 816 816 816 818 821 824 824 825 828 832 834 834 835 836 837 843 842 828 815 818 819 815 816 816 817 825 820 806 802 807 809 807 806 812 821 826 827 828 829 829 829 828 827
814 814 815 815 816 817 817 817 817 817 816 816 816 816 815 815 814 814 814 813 813 814 813 815 814 816 818 812 806 806 806 806 807 807 808 809 810 811 811 812 813 814 814 815 815 816 816 817 821 825 825 826 828 832 836 839 838 840 840 837 839 840 836 825 817 817 817 815 817 818 822 820 808 802 808 810 808 808 812 822 828 828 830 831 831 831 830 829
813 814 814 815 816 816 816 816 816 816 816 815 815 815 815 814 814 813 814 813 814 813 814 814 814 816 814 808 806 806 805 805 805 807 808 808 810 810 811 812 813 814 814 815 815 816 817 819 825 827 827 831 833 833 840 845 840 839 843 841 838 839 839 831 818 817 818 816 818 819 821 818 806 801 808 811 811 810 813 821 828 831 832 833 833 833 832 831
812 813 814 815 815 815 815 815 815 815 815 815 815 814 814 813 813 814 814 813 814 814 815 815 816 819 813 805 805 805 803 804 805 806 807 808 810 810 810 811 813 814 815 817 817 818 820 823 827 828 831 835 833 834 841 840 831 830 837 838 838 838 837 834 826 819 817 817 819 820 822 818 806 804 809 813 815 813 817 826 830 832 834 834 835 834 834 834
811 812 813 813 814 814 814 815 815 815 814 814 814 814 813 813 813 813 813 814 813 813 813 812 812 815 810 803 803 803 803 804 805 806 807 808 809 810 811 811 813 815 818 821 820 820 822 825 830 830 832 833 830 830 829 825 823 825 831 833 834 834 833 831 827 821 819 820 820 820 822 817 809 807 809 815 819 820 825 830 832 834 836 836 836 836 837 836
810 811 812 812 812 813 814 814 814 814 813 813 813 813 813 813 814 814 813 813 809 806 806 805 805 805 803 801 802 803 803 804 805 806 807 807 808 810 811 812 815 817 820 822 822 823 824 827 829 825 824 825 824 824 821 822 827 829 831 834 835 836 832 827 823 820 821 823 821 821 823 817 810 809 814 817 818 822 829 831 834 836 837 838 838 839 839 838
809 810 810 811 811 812 813 813 813 813 812 812 813 813 812 812 813 813 811 809 804 801 802 802 802 801 799 800 800 801 802 804 805 805 806 807 807 810 812 814 817 820 823 824 824 825 826 829 825 816 817 820 821 823 824 826 828 830 832 833 835 837 832 825 822 821 822 824 823 823 823 816 809 811 818 821 819 825 832 832 836 838 838 839 840 840 841 840
808 808 809 810 810 811 812 812 812 812 812 812 812 812 811 810 811 811 810 809 803 800 801 801 802 801 798 799 800 800 802 804 805 805 806 806 807 810 812 815 817 820 824 825 825 827 831 829 818 812 819 821 822 825 826 827 829 831 835 836 836 834 831 824 822 824 824 824 822 823 824 815 808 814 823 828 828 834 837 835 837 839 839 840 841 842 842 842
805 806 808 809 809 811 811 811 812 811 811 811 811 811 810 810 810 810 811 812 806 799 798 799 799 799 798 798 798 799 802 803 804 804 804 805 807 810 812 814 818 820 823 823 823 828 832 823 811 813 820 821 823 825 827 829 831 833 834 835 834 831 831 825 822 824 823 824 823 822 825 818 810 815 826 834 836 837 839 838 839 840 840 841 842 843 843 843
802 804 806 807 809 810 810 811 811 810 810 809 810 809 810 810 810 810 811 814 810 800 795 795 795 795 795 796 795 798 801 800 800 801 801 803 807 811 810 812 818 820 821 821 820 823 821 812 809 815 819 820 822 825 828 830 832 832 831 831 830 828 829 826 825 825 822 826 826 823 823 818 811 811 820 832 837 837 839 839 840 841 841 842 842 843 844 844
800 802 803 805 808 808 810 811 809 809 808 808 808 808 810 810 810 811 812 816 813 801 794 793 793 793 790 793 794 795 799 799 798 799 799 801 804 808 810 811 815 818 819 821 824 824 817 811 811 815 819 822 822 824 827 828 830 831 825 824 824 823 825 826 828 829 826 827 828 827 824 816 812 811 817 828 834 836 840 840 841 842 842 842 842 843 844 843
798 800 801 803 805 807 810 809 807 807 807 807 807 806 809 809 810 811 813 822 816 799 795 793 791 791 788 792 794 795 801 800 797 798 799 800 801 803 809 811 812 815 817 821 825 823 817 812 812 814 817 821 824 824 825 826 830 830 823 820 822 823 825 827 828 830 830 829 830 833 827 821 816 809 813 825 830 836 842 841 843 843 842 843 843 844 844 844
796 798 799 801 803 805 807 806 806 806 806 806 805 807 809 808 812 811 814 828 816 790 790 794 791 789 788 792 792 794 802 800 797 799 798 800 801 801 807 811 812 813 815 820 824 820 813 812 815 816 816 821 823 822 823 826 826 825 823 822 821 822 824 826 827 830 831 831 831 830 827 829 825 811 813 823 826 833 842 842 844 845 844 844 844 845 845 845
793 795 797 799 801 803 804 804 805 804 805 805 804 807 808 808 812 810 819 831 807 779 784 790 789 788 788 792 792 794 800 798 798 801 799 800 801 801 807 809 810 811 812 816 820 817 812 811 813 816 818 821 819 816 819 822 820 821 826 827 824 824 827 827 828 831 836 838 833 828 828 832 827 814 818 825 820 822 833 841 843 844 845 845 845 846 846 846
791 792 794 797 799 801 802 802 803 803 804 804 805 807 807 810 811 812 827 827 792 775 784 786 787 790 790 793 794 795 798 798 799 801 800 801 801 802 806 808 808 810 813 815 814 813 813 812 812 813 815 816 815 818 822 818 815 823 829 829 827 830 831 830 829 830 835 840 835 827 826 830 823 812 814 821 816 812 822 837 842 843 845 846 846 847 847 847
788 789 792 795 796 798 799 800 801 802 803 804 805 806 807 811 812 821 833 813 780 779 787 785 789 792 791 795 798 797 797 799 801 801 802 802 801 803 806 807 808 809 814 815 813 812 814 815 815 812 811 812 814 823 828 822 820 825 824 821 824 830 831 833 835 833 833 835 830 822 820 826 824 812 809 814 815 814 819 831 841 844 845 845 846 848 848 847
784 786 789 791 792 793 795 797 799 801 803 804 804 807 808 812 818 825 818 790 777 785 787 787 793 791 792 795 796 797 798 800 801 800 802 804 804 805 807 808 809 813 817 815 814 816 815 814 813 810 811 813 813 819 826 827 826 823 819 819 824 829 831 835 836 837 836 829 827 829 828 830 826 811 805 809 816 822 821 824 834 841 843 845 846 847 848 848
781 783 786 788 789 790 792 793 795 799 802 802 805 806 809 819 820 812 798 780 778 783 780 785 792 791 793 794 793 797 798 799 801 800 802 806 806 806 806 806 807 815 820 817 816 817 813 811 811 810 811 811 808 814 823 825 824 821 819 822 828 834 837 836 834 838 837 829 834 840 833 830 822 807 803 808 818 830 829 826 832 836 840 843 845 846 847 848
779 781 783 785 786 787 789 791 794 798 799 801 806 805 810 819 806 789 787 780 774 775 775 781 787 790 793 793 793 797 797 797 799 800 803 806 808 807 805 806 806 807 812 817 819 817 812 812 812 810 808 806 803 809 816 818 821 820 818 820 827 838 843 840 839 844 837 830 839 842 833 827 815 806 814 821 826 835 834 831 830 832 837 840 843 845 845 847
776 778 780 781 783 784 786 790 792 794 797 800 804 806 811 807 784 773 780 776 769 773 775 779 786 791 792 790 791 792 794 797 798 800 803 806 809 808 805 807 809 804 806 816 819 817 814 809 806 805 804 801 800 801 804 809 817 820 819 819 821 826 830 830 832 833 828 827 837 840 831 817 804 810 830 834 834 837 834 831 830 832 838 840 843 845 845 846
773 776 777 778 780 781 783 787 788 791 795 797 799 803 800 786 773 772 773 769 769 774 776 780 785 790 792 791 790 789 787 792 799 802 803 804 805 804 800 801 806 804 804 810 811 815 816 805 798 803 805 801 799 800 802 806 814 823 825 821 818 816 814 822 831 834 833 833 835 834 823 809 808 823 837 836 834 837 836 834 835 836 840 842 843 844 845 846
771 773 774 774 774 776 779 782 784 787 790 792 795 793 781 769 767 768 763 760 764 769 777 784 784 787 792 790 790 790 784 787 797 800 802 804 802 800 798 795 798 801 798 800 802 808 812 804 800 806 806 804 804 802 803 803 807 821 825 816 817 818 810 818 834 842 844 837 829 827 818 808 811 821 832 835 833 837 840 839 839 840 842 843 843 844 845 846
766 767 769 768 768 771 774 777 780 783 785 787 785 776 766 762 762 762 759 758 760 763 772 779 778 780 786 786 786 787 784 787 795 796 798 801 796 793 793 789 791 794 790 790 793 796 800 799 801 805 802 806 812 807 804 805 805 814 817 810 816 821 815 820 829 836 844 839 827 823 815 809 805 808 826 836 831 835 842 841 842 844 844 843 843 843 844 845
760 764 765 762 763 766 770 774 777 779 782 782 777 767 762 762 760 760 760 760 760 762 766 771 770 771 778 781 781 783 782 785 792 794 794 796 788 782 784 783 786 790 787 787 790 792 795 796 801 808 805 807 812 807 805 810 808 808 808 807 811 815 817 824 829 828 834 834 824 815 810 809 803 802 813 818 818 830 840 841 842 841 842 842 841 841 842 843
758 762 761 757 759 764 768 772 774 777 779 777 771 765 761 761 761 760 760 760 761 763 765 767 768 771 775 776 776 780 781 782 790 791 788 790 786 779 779 780 783 789 789 788 790 792 794 795 800 808 809 807 808 807 806 809 810 809 809 811 810 810 812 818 823 821 821 823 820 812 805 801 798 800 799 795 807 826 835 838 838 836 838 838 837 838 839 841
757 760 757 752 756 761 766 770 773 774 773 766 762 762 761 761 761 760 760 760 762 765 766 766 768 771 774 775 775 777 779 781 786 787 782 783 782 778 777 777 780 787 790 789 790 791 794 798 802 807 811 810 806 805 803 802 805 807 809 812 811 811 813 815 817 816 814 817 817 816 808 794 794 805 798 790 806 823 826 830 833 833 834 834 834 835 837 838
755 756 753 751 754 759 764 769 769 768 765 760 757 759 760 760 760 761 761 762 764 766 767 767 768 771 773 775 776 776 778 780 782 782 780 779 779 777 776 776 777 783 788 790 790 791 793 798 802 806 810 807 802 804 807 803 801 801 802 804 804 807 812 815 817 814 813 813 811 812 808 792 794 811 806 800 811 819 822 825 829 831 831 830 832 833 834 835
753 752 750 751 753 755 762 765 763 762 761 758 755 755 757 757 757 760 762 764 766 767 768 768 769 772 772 772 774 775 775 777 780 780 778 777 776 775 776 778 777 777 782 788 789 790 792 796 800 804 805 804 804 809 814 810 804 801 801 801 801 803 804 807 810 810 813 815 811 813 810 798 803 816 814 811 815 818 821 822 823 827 828 829 830 831 832 831
751 750 750 752 752 753 758 761 760 760 758 755 753 754 755 756 757 759 762 764 766 767 769 769 769 770 769 769 773 774 772 773 776 777 777 777 775 776 778 779 779 776 777 784 788 789 791 793 798 802 803 805 808 808 809 809 806 804 803 804 805 804 802 805 807 809 813 811 809 816 811 799 806 816 816 818 818 818 821 819 817 823 826 827 828 828 829 830
749 751 751 752 752 752 753 753 754 756 756 754 755 755 756 756 755 757 760 762 764 765 766 767 767 767 767 767 769 770 769 771 774 775 776 777 777 780 782 781 780 777 776 779 781 783 789 794 799 805 807 809 812 811 810 810 808 806 805 807 808 805 808 814 814 816 818 809 805 812 805 796 806 815 814 817 819 817 820 821 819 820 824 826 826 826 827 829
748 751 752 752 752 751 748 745 746 749 752 754 755 755 756 757 755 754 757 758 760 761 763 765 765 765 766 768 769 769 768 768 771 773 775 778 779 782 784 783 782 780 779 780 778 779 788 794 796 802 805 803 803 805 808 806 806 808 808 807 808 806 807 809 811 817 818 808 805 806 799 799 810 813 809 811 814 812 814 820 822 821 823 825 825 825 827 828
746 749 753 754 752 750 747 745 746 746 747 751 754 753 754 756 755 754 756 757 758 759 761 763 764 765 768 769 770 771 770 769 771 773 776 778 779 783 786 785 785 784 783 784 782 783 792 796 794 795 795 793 790 793 800 801 797 800 802 800 804 808 806 807 813 816 812 809 808 801 798 804 809 809 809 809 811 810 809 814 818 818 820 822 823 825 826 827
744 746 748 751 752 750 747 747 748 746 744 748 751 750 750 752 753 755 756 756 756 758 760 762 764 764 766 769 770 770 770 771 773 774 776 777 777 785 790 787 787 788 786 787 787 787 793 796 793 792 792 791 790 792 800 801 793 793 795 793 800 810 811 809 812 808 805 811 808 797 801 807 802 802 809 808 807 811 812 812 813 814 815 818 821 824 824 825
745 744 744 746 748 747 745 743 745 747 745 746 746 746 747 750 751 753 755 757 757 757 759 763 763 761 761 763 766 768 770 773 774 774 774 775 777 784 789 787 789 791 789 790 790 788 789 789 788 792 794 796 797 798 802 801 796 796 796 793 798 810 813 812 810 804 802 806 800 794 803 807 799 800 806 805 805 808 809 809 810 812 814 816 819 820 821 823
745 745 745 746 745 745 744 740 742 746 746 746 747 745 744 747 748 748 751 756 759 757 757 760 760 759 760 760 761 765 768 769 771 771 771 775 778 781 783 784 787 791 791 789 790 790 788 787 788 792 794 798 803 805 805 804 801 800 799 795 799 810 814 812 807 803 805 808 802 801 808 807 801 802 805 806 808 809 808 809 812 813 813 813 815 817 818 822
745 745 746 747 747 747 747 743 743 746 747 747 748 746 745 746 746 747 749 751 755 757 756 756 757 757 760 761 760 761 760 760 764 765 767 774 778 778 778 777 781 790 792 788 791 792 789 790 794 795 795 801 810 813 811 810 807 805 802 801 807 815 816 812 807 807 813 814 809 811 816 811 803 803 807 807 809 810 810 810 811 811 812 813 814 816 818 819
747 748 747 747 746 746 748 746 745 746 747 747 747 746 748 748 746 747 749 747 748 752 753 754 756 758 761 763 762 759 756 756 759 760 762 767 769 769 771 770 773 783 789 790 789 788 790 796 800 798 795 800 813 820 816 814 817 816 809 808 815 816 808 805 809 810 810 810 812 817 819 810 801 803 808 807 806 809 810 810 809 810 814 815 813 813 816 817
747 749 749 749 748 747 747 747 747 748 745 743 743 744 745 746 745 747 751 749 747 750 751 751 754 758 762 763 760 755 754 759 764 767 769 769 767 767 768 769 770 773 781 788 789 789 791 793 798 798 793 801 820 825 818 817 818 809 797 798 808 810 804 802 806 807 804 806 811 813 808 800 800 805 807 805 805 808 809 809 809 809 813 816 813 812 813 815